Location: Les Moreaux
(47.2278°N, 1.4966°E)
Time: 05:10:54
(UTC+00:00)

Cosmos 158 Rocket - Visible Passes

Search period start: 17 February 2026 00:00
Search period end: 27 February 2026 00:00
Orbit: 695 x 785 km, 74.0° (Epoch: 16 February)

Date Brightness Start Highest point End Pass type
(mag) Time Alt. Az. Time Alt. Az. Time Alt. Az.
17 Feb 6.9 19:04:12 10° NW 19:04:41 10° NW 19:05:11 10° NW visible
18 Feb 6.4 18:15:22 10° W 18:18:36 17° NW 18:21:52 10° N visible
20 Feb 6.8 18:28:53 10° NW 18:29:42 10° NW 18:30:31 10° NNW visible
